Regional Weather Roundup
Issued by NWS

Home | Current Version | Previous Version | Graphics & Text | Print | Product List | Glossary On
Versions: 1 2 3 4 5 6 7 8 9 10 11 12 13 14 15 16 17 18 19 20 21 22 23 24 25 26 27 28 29 30 31 32 33 34 35 36 37 38 39 40 41 42 43 44 45 46 47 48 49 50
000
ASUS43 KOAX 242210
RWRNE

WEATHER ROUNDUP FOR NEBRASKA
NATIONAL WEATHER SERVICE OMAHA NE
500 PM CDT FRI APR 24 2015

NOTES: SATELLITE DATA IS BEING USED TO AUGMENT CLOUD COVER ABOVE
       12000 FEET.
       "FAIR" INDICATES FEW OR NO CLOUDS BELOW 12,000 FEET WITH NO
       SIGNIFICANT WEATHER AND/OR OBSTRUCTIONS TO VISIBILITY.

  * THESE STATIONS DO NOT REPORT WEATHER SUCH AS RAIN...SNOW OR FOG.

NEZ001>004-019>022-054>056-242300-
NEBRASKA PANHANDLE

CITY           SKY/WX    TMP DP  RH WIND       PRES   REMARKS
SCOTTSBLUFF    PTSUNNY   71  35  26 N8        29.54F
ALLIANCE       PTSUNNY   69  40  34 VRB7      29.53F
CHADRON        PTSUNNY   63  44  50 N20G26    29.55R
KIMBALL        CLOUDY    59  35  39 SW13      29.61S
SIDNEY         CLOUDY    63  32  31 W12G22    29.58F
$$

NEZ057>060-069>072-079>082-242300-
SOUTHWEST NEBRASKA

CITY           SKY/WX    TMP DP  RH WIND       PRES   REMARKS
IMPERIAL       CLOUDY    70  42  36 E9        29.53F
LEXINGTON      PTSUNNY   68  54  61 S3        29.54F
MCCOOK         PTSUNNY   69  53  56 E10       29.52F
OGALLALA       LGT RAIN  62  53  70 N5        29.54S
$$

NEZ005>010-023>029-035>040-094-242300-
NORTH CENTRAL NEBRASKA

CITY           SKY/WX    TMP DP  RH WIND       PRES   REMARKS
VALENTINE      PTSUNNY   76  36  23 NE8G18    29.48F
AINSWORTH      PTSUNNY   74  37  26 W8        29.49F
BROKEN BOW     MOSUNNY   72  52  49 SE9       29.52F
O`NEILL        CLOUDY    71  53  53 S9        29.51F
ORD            PTSUNNY   71  53  52 S10       29.52F
THEDFORD       CLOUDY    75  37  25 CALM      29.50S
$$

NEZ041-046>049-061>064-073>077-083>087-242300-
SOUTH CENTRAL NEBRASKA

CITY           SKY/WX    TMP DP  RH WIND       PRES   REMARKS
GRAND ISLAND   CLOUDY    63  55  75 SE10      29.58F
AURORA         CLOUDY    63  56  80 S10       29.58F
HASTINGS       CLOUDY    61  56  83 SE9       29.57F
HEBRON         CLOUDY    60  56  88 SE6       29.58F FOG
HOLDREGE       CLOUDY    66  55  67 SE9       29.53F
KEARNEY *      CLOUDY    66  55  68 SE12      29.55F
YORK           CLOUDY    63  55  77 S12       29.59S
$$

NEZ011>018-030>034-042>045-242300-
NORTHEAST NEBRASKA

CITY           SKY/WX    TMP DP  RH WIND       PRES   REMARKS
NORFOLK        MOSUNNY   72  55  55 S14       29.54F
ALBION         MOSUNNY   71  53  52 S12G17    29.54F
BLAIR          CLOUDY    68  52  55 SE12      29.59F
COLUMBUS *     CLOUDY    66  54  63 S13       29.59F
FREMONT        CLOUDY    69  54  59 SE10      29.59F
TEKAMAH        LGT RAIN  71  55  56 S16       29.58F
WAYNE          SUNNY     73  54  51 S14       29.56S
$$

NEZ050>053-065>068-078-088>093-242300-
SOUTHEAST NEBRASKA

CITY           SKY/WX    TMP DP  RH WIND       PRES   REMARKS
LINCOLN        CLOUDY    63  53  70 S12       29.61R
OMAHA EPPLEY   CLOUDY    68  52  56 S16       29.59F
BEATRICE       CLOUDY    60  54  78 S12       29.61R
FALLS CITY     CLOUDY    60  52  74 S15       29.63F
NEBRASKA CITY  CLOUDY    61  47  61 S14       29.61F
PLATTSMOUTH    CLOUDY    62  49  62 SE12      29.61F
$$

NEZ044-045-051>053-067-242300-
OMAHA AREA

CITY           SKY/WX    TMP DP  RH WIND       PRES   REMARKS
OMAHA EPPLEY   CLOUDY    68  52  56 S16       29.59F
BLAIR          CLOUDY    68  52  55 SE12      29.59F
FREMONT        CLOUDY    69  54  59 SE10      29.59F
MILLARD        CLOUDY    67  54  63 SE12      29.59F
OFFUTT AFB     CLOUDY    66  53  62 SE13      29.60F
PLATTSMOUTH    CLOUDY    62  49  62 SE12      29.61F
WAHOO          CLOUDY    67  52  58 SE13      29.58S
$$



USA.gov is the U.S. government's official web portal to all federal, state and local government web resources and services.